• In Czech Republic
  • List of Countries
  • For 7 days
  • Water Temperature
  • Satellite Maps
  • Weather Map
  • Weather Widgets
  • user-avatar
    Login

    Hourly Weather Ondjiwa

    Today, 28 June, Wednesday

    Time Temperature Precipitation Wind Pressure Humidity
    00:00 +15°C° 0 mm 2 mps 668 mmHg 33%
    01:00 +15°C° 0 mm 2 mps 668 mmHg 35%
    02:00 +14°C° 0 mm 2 mps 668 mmHg 37%
    03:00 +13°C° 0 mm 2 mps 667 mmHg 39%
    04:00 +12°C° 0 mm 2 mps 667 mmHg 41%
    05:00 +12°C° 0 mm 2 mps 668 mmHg 41%
    06:00 +12°C° 0 mm 2 mps 668 mmHg 41%
    07:00 +12°C° 0 mm 2 mps 668 mmHg 41%
    08:00 +16°C° 0 mm 2 mps 669 mmHg 33%
    09:00 +20°C° 0 mm 2 mps 671 mmHg 26%
    10:00 +26°C° 0 mm 3 mps 672 mmHg 19%
    11:00 +27°C° 0 mm 2 mps 671 mmHg 17%
    12:00 +29°C° 0 mm 2 mps 671 mmHg 16%
    13:00 +31°C° 0 mm 1 mps 671 mmHg 15%
    14:00 +31°C° 0 mm 1 mps 670 mmHg 14%
    15:00 +30°C° 0 mm 1 mps 670 mmHg 14%
    16:00 +28°C° 0 mm 0 mps 669 mmHg 13%
    17:00 +24°C° 0 mm 0 mps 668 mmHg 25%
    18:00 +22°C° 0 mm 1 mps 667 mmHg 37%
    19:00 +16°C° 0 mm 1 mps 666 mmHg 49%
    20:00 +18°C° 0 mm 1 mps 667 mmHg 42%
    21:00 +17°C° 0 mm 2 mps 667 mmHg 35%
    22:00 +17°C° 0 mm 2 mps 668 mmHg 29%
    23:00 +16°C° 0 mm 2 mps 668 mmHg 30%

    Tomorrow, 29 June, Thursday

    Time Temperature Precipitation Wind Pressure Humidity
    00:00 +16°C° 0 mm 2 mps 668 mmHg 31%
    01:00 +15°C° 0 mm 2 mps 668 mmHg 32%
    02:00 +15°C° 0 mm 2 mps 668 mmHg 34%
    03:00 +14°C° 0 mm 3 mps 668 mmHg 36%
    04:00 +13°C° 0 mm 3 mps 667 mmHg 38%
    05:00 +13°C° 0 mm 3 mps 668 mmHg 40%
    06:00 +14°C° 0 mm 2 mps 668 mmHg 42%
    07:00 +14°C° 0 mm 2 mps 668 mmHg 44%
    08:00 +17°C° 0 mm 3 mps 670 mmHg 37%
    09:00 +21°C° 0 mm 4 mps 671 mmHg 30%
    10:00 +26°C° 0 mm 5 mps 672 mmHg 23%
    11:00 +28°C° 0 mm 5 mps 671 mmHg 20%
    12:00 +30°C° 0 mm 4 mps 671 mmHg 17%
    13:00 +33°C° 0 mm 4 mps 671 mmHg 15%
    14:00 +32°C° 0 mm 4 mps 670 mmHg 15%
    15:00 +31°C° 0 mm 3 mps 670 mmHg 15%
    16:00 +31°C° 0 mm 3 mps 669 mmHg 15%
    17:00 +28°C° 0 mm 3 mps 669 mmHg 19%
    18:00 +25°C° 0 mm 3 mps 668 mmHg 23%
    19:00 +20°C° 0 mm 3 mps 668 mmHg 28%
    20:00 +20°C° 0 mm 3 mps 668 mmHg 29%
    21:00 +19°C° 0 mm 3 mps 669 mmHg 30%
    22:00 +18°C° 0 mm 3 mps 669 mmHg 32%
    23:00 +18°C° 0 mm 3 mps 669 mmHg 32%

    Day after tomorrow, 30 June, Friday

    Time Temperature Precipitation Wind Pressure Humidity
    00:00 +17°C° 0 mm 4 mps 669 mmHg 32%
    01:00 +17°C° 0 mm 4 mps 669 mmHg 33%
    02:00 +16°C° 0 mm 3 mps 669 mmHg 35%
    03:00 +14°C° 0 mm 3 mps 668 mmHg 37%
    04:00 +13°C° 0 mm 3 mps 668 mmHg 40%
    05:00 +14°C° 0 mm 2 mps 668 mmHg 41%
    06:00 +13°C° 0 mm 2 mps 669 mmHg 43%
    07:00 +13°C° 0 mm 2 mps 669 mmHg 45%
    08:00 +17°C° 0 mm 2 mps 670 mmHg 38%
    09:00 +21°C° 0 mm 3 mps 671 mmHg 31%
    10:00 +25°C° 0 mm 4 mps 672 mmHg 24%
    11:00 +27°C° 0 mm 3 mps 672 mmHg 21%
    12:00 +29°C° 0 mm 3 mps 671 mmHg 18%
    13:00 +31°C° 0 mm 3 mps 671 mmHg 16%
    14:00 +31°C° 0 mm 2 mps 670 mmHg 16%
    15:00 +31°C° 0 mm 2 mps 670 mmHg 15%
    16:00 +31°C° 0 mm 1 mps 669 mmHg 15%
    17:00 +27°C° 0 mm 1 mps 669 mmHg 22%
    18:00 +23°C° 0 mm 1 mps 668 mmHg 29%
    19:00 +18°C° 0 mm 2 mps 668 mmHg 36%
    20:00 +18°C° 0 mm 2 mps 668 mmHg 35%
    21:00 +18°C° 0 mm 2 mps 669 mmHg 34%
    22:00 +17°C° 0 mm 2 mps 669 mmHg 33%
    23:00 +17°C° 0 mm 2 mps 669 mmHg 34%

    1 July, Saturday

    Time Temperature Precipitation Wind Pressure Humidity
    00:00 +16°C° 0 mm 2 mps 668 mmHg 35%
    01:00 +15°C° 0 mm 2 mps 668 mmHg 37%
    02:00 +15°C° 0 mm 2 mps 668 mmHg 39%
    03:00 +14°C° 0 mm 2 mps 668 mmHg 41%
    04:00 +13°C° 0 mm 2 mps 668 mmHg 43%
    05:00 +13°C° 0 mm 2 mps 668 mmHg 44%
    06:00 +13°C° 0 mm 2 mps 669 mmHg 46%
    07:00 +13°C° 0 mm 2 mps 669 mmHg 47%
    08:00 +17°C° 0 mm 3 mps 670 mmHg 40%
    09:00 +21°C° 0 mm 3 mps 671 mmHg 33%
    10:00 +26°C° 0 mm 4 mps 672 mmHg 25%
    11:00 +28°C° 0 mm 4 mps 672 mmHg 22%
    12:00 +30°C° 0 mm 4 mps 671 mmHg 19%
    13:00 +31°C° 0 mm 3 mps 671 mmHg 16%
    14:00 +31°C° 0 mm 3 mps 670 mmHg 16%
    15:00 +31°C° 0 mm 3 mps 670 mmHg 15%
    16:00 +31°C° 0 mm 3 mps 669 mmHg 15%
    17:00 +28°C° 0 mm 3 mps 669 mmHg 20%
    18:00 +25°C° 0 mm 3 mps 669 mmHg 24%
    19:00 +20°C° 0 mm 3 mps 668 mmHg 29%
    20:00 +20°C° 0 mm 3 mps 669 mmHg 31%
    21:00 +19°C° 0 mm 3 mps 669 mmHg 33%
    22:00 +18°C° 0 mm 3 mps 669 mmHg 34%
    23:00 +18°C° 0 mm 3 mps 669 mmHg 37%

    2 July, Sunday

    Time Temperature Precipitation Wind Pressure Humidity
    00:00 +17°C° 0 mm 3 mps 669 mmHg 39%
    01:00 +16°C° 0 mm 3 mps 669 mmHg 41%
    02:00 +16°C° 0 mm 3 mps 669 mmHg 43%
    03:00 +14°C° 0 mm 3 mps 668 mmHg 45%
    04:00 +14°C° 0 mm 3 mps 668 mmHg 47%
    05:00 +14°C° 0 mm 3 mps 669 mmHg 48%
    06:00 +13°C° 0 mm 3 mps 669 mmHg 49%
    07:00 +13°C° 0 mm 3 mps 670 mmHg 50%
    08:00 +18°C° 0 mm 4 mps 671 mmHg 42%
    09:00 +22°C° 0 mm 5 mps 671 mmHg 33%
    10:00 +27°C° 0 mm 6 mps 672 mmHg 24%
    11:00 +28°C° 0 mm 5 mps 672 mmHg 22%
    12:00 +29°C° 0 mm 5 mps 671 mmHg 19%
    13:00 +32°C° 0 mm 4 mps 670 mmHg 17%
    14:00 +32°C° 0 mm 4 mps 670 mmHg 17%
    15:00 +31°C° 0 mm 3 mps 669 mmHg 16%
    16:00 +30°C° 0 mm 3 mps 669 mmHg 16%
    17:00 +27°C° 0 mm 3 mps 669 mmHg 20%
    18:00 +24°C° 0 mm 3 mps 668 mmHg 24%
    19:00 +20°C° 0 mm 2 mps 668 mmHg 29%
    20:00 +19°C° 0 mm 2 mps 668 mmHg 29%
    21:00 +18°C° 0 mm 3 mps 668 mmHg 30%
    22:00 +17°C° 0 mm 3 mps 669 mmHg 31%
    23:00 +17°C° 0 mm 3 mps 669 mmHg 33%

    3 July, Monday

    Time Temperature Precipitation Wind Pressure Humidity
    00:00 +16°C° 0 mm 3 mps 668 mmHg 34%
    01:00 +14°C° 0 mm 3 mps 668 mmHg 35%
    02:00 +13°C° 0 mm 3 mps 668 mmHg 37%
    03:00 +13°C° 0 mm 3 mps 668 mmHg 38%
    04:00 +13°C° 0 mm 3 mps 668 mmHg 40%
    05:00 +12°C° 0 mm 3 mps 668 mmHg 41%
    06:00 +12°C° 0 mm 3 mps 669 mmHg 42%
    07:00 +12°C° 0 mm 3 mps 669 mmHg 43%
    08:00 +17°C° 0 mm 4 mps 670 mmHg 36%
    09:00 +21°C° 0 mm 4 mps 671 mmHg 28%
    10:00 +26°C° 0 mm 5 mps 672 mmHg 21%
    11:00 +27°C° 0 mm 4 mps 671 mmHg 18%
    12:00 +29°C° 0 mm 3 mps 671 mmHg 16%
    13:00 +31°C° 0 mm 3 mps 670 mmHg 14%
    14:00 +30°C° 0 mm 3 mps 670 mmHg 13%
    15:00 +30°C° 0 mm 2 mps 670 mmHg 13%
    16:00 +30°C° 0 mm 2 mps 669 mmHg 12%
    17:00 +27°C° 0 mm 2 mps 669 mmHg 16%
    18:00 +24°C° 0 mm 2 mps 668 mmHg 20%
    19:00 +19°C° 0 mm 2 mps 668 mmHg 23%
    20:00 +18°C° 0 mm 2 mps 668 mmHg 24%
    21:00 +18°C° 0 mm 3 mps 668 mmHg 25%
    22:00 +17°C° 0 mm 3 mps 669 mmHg 26%
    23:00 +16°C° 0 mm 3 mps 668 mmHg 28%
    Show more